[TLELIST] Archives

 

[TLELIST] Current TLEs

September 25th 2023 PDT

HST 1 20580U 90037B 23267.56573062 .00006488 00000-0 33663-3 0 9998 2 20580 28.4705 326.3448 0002365 26.2288 86.9044 15.14131942636532 ISS (ZARYA) 1 25544U 98067A 23268.27860045 .00019455 00000-0 35229-3 0 9991 2 25544 51.6420 192.7535 0005874 59.8797 75.3053 15.49641125417318 CXO 1 25867U 99040B 23271.08378024 .00001069 00000-0 00000+0 0 9992 2 25867 37.3543 183.8310 9043690 273.0555 0.6895 0.37811165 24722 ...Continue Reading

[TLELIST] Current TLEs

September 25th 2023 PDT

HST 1 20580U 90037B 23267.56573062 .00006488 00000-0 33663-3 0 9998 2 20580 28.4705 326.3448 0002365 26.2288 86.9044 15.14131942636532 ISS (ZARYA) 1 25544U 98067A 23268.27860045 .00019455 00000-0 35229-3 0 9991 2 25544 51.6420 192.7535 0005874 59.8797 75.3053 15.49641125417318 CXO 1 25867U 99040B 23271.08378024 .00001069 00000-0 00000+0 0 9992 2 25867 37.3543 183.8310 9043690 273.0555 0.6895 0.37811165 24722 ...Continue Reading

[TLELIST] Current TLEs

September 24th 2023 PDT

HST 1 20580U 90037B 23267.22319154 .00005938 00000-0 30734-3 0 9996 2 20580 28.4705 328.6268 0002345 22.6664 19.6154 15.14126814636743 ISS (ZARYA) 1 25544U 98067A 23267.31354319 .00017826 00000-0 32403-3 0 9998 2 25544 51.6419 197.5317 0005949 54.2288 93.6779 15.49596856417165 CXO 1 25867U 99040B 23268.44052180 .00001183 00000-0 00000-0 0 9998 2 25867 37.3431 184.1262 9042726 272.8331 0.7470 0.37813553 13558 ...Continue Reading

[TLELIST] Current TLEs

September 24th 2023 PDT

HST 1 20580U 90037B 23267.22319154 .00005938 00000-0 30734-3 0 9996 2 20580 28.4705 328.6268 0002345 22.6664 19.6154 15.14126814636743 ISS (ZARYA) 1 25544U 98067A 23267.31354319 .00017826 00000-0 32403-3 0 9998 2 25544 51.6419 197.5317 0005949 54.2288 93.6779 15.49596856417165 CXO 1 25867U 99040B 23268.44052180 .00001183 00000-0 00000-0 0 9998 2 25867 37.3431 184.1262 9042726 272.8331 0.7470 0.37813553 13558 ...Continue Reading

[TLELIST] Current TLEs

September 23rd 2023 PDT

HST 1 20580U 90037B 23265.92729034 .00006124 00000-0 31741-3 0 9990 2 20580 28.4707 337.2606 0002256 8.5494 155.9359 15.14112033636280 ISS (ZARYA) 1 25544U 98067A 23266.34540382 .00017378 00000-0 31652-3 0 9994 2 25544 51.6416 202.3244 0005870 51.2241 92.3610 15.49559831417011 CXO 1 25867U 99040B 23268.44052180 .00001183 00000-0 00000-0 0 9998 2 25867 37.3431 184.1262 9042726 272.8331 0.7470 0.37813553 13558 ...Continue Reading

[TLELIST] Current TLEs

September 23rd 2023 PDT

HST 1 20580U 90037B 23265.92729034 .00006124 00000-0 31741-3 0 9990 2 20580 28.4707 337.2606 0002256 8.5494 155.9359 15.14112033636280 ISS (ZARYA) 1 25544U 98067A 23266.34540382 .00017378 00000-0 31652-3 0 9994 2 25544 51.6416 202.3244 0005870 51.2241 92.3610 15.49559831417011 CXO 1 25867U 99040B 23268.44052180 .00001183 00000-0 00000-0 0 9998 2 25867 37.3431 184.1262 9042726 272.8331 0.7470 0.37813553 13558 ...Continue Reading

[TLELIST] Current TLEs

September 22nd 2023 PDT

HST 1 20580U 90037B 23264.93837391 .00005673 00000-0 29338-3 0 9993 2 20580 28.4708 343.8492 0002201 357.5038 165.8861 15.14100347636135 ISS (ZARYA) 1 25544U 98067A 23265.31627168 .00017880 00000-0 32580-3 0 9997 2 25544 51.6422 207.4193 0005807 46.5561 112.3837 15.49525216416854 CXO 1 25867U 99040B 23265.79690919 .00001178 00000-0 00000-0 0 9995 2 25867 37.3288 184.4233 9043037 272.6042 0.7541 0.37812949 13559 ...Continue Reading

[TLELIST] Current TLEs

September 21st 2023 PDT

HST 1 20580U 90037B 23263.67828421 .00006414 00000-0 33311-3 0 9997 2 20580 28.4707 352.2436 0002102 342.8692 138.4344 15.14086400635942 ISS (ZARYA) 1 25544U 98067A 23264.34533763 .00018367 00000-0 33483-3 0 9990 2 25544 51.6420 212.2266 0005789 43.2903 95.9874 15.49491623416705 CXO 1 25867U 99040B 23265.79690919 .00001178 00000-0 00000-0 0 9995 2 25867 37.3288 184.4233 9043037 272.6042 0.7541 0.37812949 13559 ...Continue Reading

[TLELIST] Current TLEs

September 21st 2023 PDT

HST 1 20580U 90037B 23263.67828421 .00006414 00000-0 33311-3 0 9997 2 20580 28.4707 352.2436 0002102 342.8692 138.4344 15.14086400635942 ISS (ZARYA) 1 25544U 98067A 23264.34533763 .00018367 00000-0 33483-3 0 9990 2 25544 51.6420 212.2266 0005789 43.2903 95.9874 15.49491623416705 CXO 1 25867U 99040B 23265.79690919 .00001178 00000-0 00000-0 0 9995 2 25867 37.3288 184.4233 9043037 272.6042 0.7541 0.37812949 13559 ...Continue Reading

[TLELIST] Current TLEs

September 20th 2023 PDT

HST 1 20580U 90037B 23262.68904841 .00006608 00000-0 34362-3 0 9990 2 20580 28.4709 358.8335 0002041 330.5926 147.9624 15.14073296636058 ISS (ZARYA) 1 25544U 98067A 23263.37806641 .00016418 00000-0 30068-3 0 9991 2 25544 51.6417 217.0147 0005763 40.8381 99.3324 15.49450674416559 CXO 1 25867U 99040B 23265.79578558 .00001178 00000-0 00000+0 0 9998 2 25867 37.3312 184.4414 9043004 272.5873 0.6020 0.37814831 24705 ...Continue Reading
  • This mailing list is a public mailing list - anyone may join or leave, at any time.
  • This mailing list is announce-only.

International Space Station (ISS) / Hubble Space Telescope (HST) / Chandra X-Ray Observatory Orbital Data via EMAIL

Privacy Policy:

Private list